Time,TemperatureF,DewpointF,PressureIn,WindDirection,WindDirectionDegrees,WindSpeedMPH,WindSpeedGustMPH,Humidity,HourlyPrecipIn,Conditions,Clouds,dailyrainin,SoftwareType,DateUTC
2013-03-25 00:04:00,25.3,25.1,29.43,ESE,112,2.2,-999.0,99,-99.99,,,0.00,Acu-Link.com,2013-03-25 04:04:00,
2013-03-25 00:19:00,25.3,25.1,29.44,West,270,0.0,-999.0,99,-99.99,,,0.00,Acu-Link.com,2013-03-25 04:19:00,
2013-03-25 00:35:00,25.3,25.1,29.43,NNW,337,0.0,-999.0,99,-99.99,,,0.00,Acu-Link.com,2013-03-25 04:35:00,
2013-03-25 00:50:00,25.3,25.1,29.44,West,270,1.1,-999.0,99,-99.99,,,0.00,Acu-Link.com,2013-03-25 04:50:00,
2013-03-25 01:05:00,25.3,25.1,29.43,West,270,0.0,-999.0,99,-99.99,,,0.00,Acu-Link.com,2013-03-25 05:05:00,
2013-03-25 01:20:00,25.3,25.1,29.43,West,270,0.0,-999.0,99,-99.99,,,0.00,Acu-Link.com,2013-03-25 05:20:00,
2013-03-25 01:51:00,25.0,24.8,29.41,ESE,112,0.0,-999.0,99,-99.99,,,0.00,Acu-Link.com,2013-03-25 05:51:00,
2013-03-25 02:06:00,24.6,24.4,29.40,NE,45,1.7,-999.0,99,-99.99,,,0.00,Acu-Link.com,2013-03-25 06:06:00,
2013-03-25 02:22:00,24.4,24.2,29.40,NW,315,1.1,-999.0,99,-99.99,,,0.00,Acu-Link.com,2013-03-25 06:22:00,
2013-03-25 02:37:00,24.4,24.2,29.40,NNE,22,0.0,-999.0,99,-99.99,,,0.00,Acu-Link.com,2013-03-25 06:37:00,
2013-03-25 02:52:00,24.6,24.4,29.39,NE,45,1.7,-999.0,99,-99.99,,,0.00,Acu-Link.com,2013-03-25 06:52:00,
2013-03-25 03:08:00,24.6,24.4,29.39,West,270,1.1,-999.0,99,-99.99,,,0.00,Acu-Link.com,2013-03-25 07:08:00,
2013-03-25 03:23:00,24.6,24.4,29.40,WSW,247,0.0,-999.0,99,-99.99,,,0.00,Acu-Link.com,2013-03-25 07:23:00,
2013-03-25 03:38:00,24.6,24.4,29.39,SW,225,0.0,-999.0,99,-99.99,,,0.00,Acu-Link.com,2013-03-25 07:38:00,
2013-03-25 03:53:00,24.8,24.6,29.39,SW,225,0.0,-999.0,99,-99.99,,,0.00,Acu-Link.com,2013-03-25 07:53:00,
2013-03-25 04:09:00,24.8,24.6,29.38,SSW,202,0.0,-999.0,99,-99.99,,,0.00,Acu-Link.com,2013-03-25 08:09:00,
2013-03-25 04:25:00,24.8,24.6,29.38,SW,225,0.0,-999.0,99,-99.99,,,0.00,Acu-Link.com,2013-03-25 08:25:00,
2013-03-25 04:40:00,24.4,24.2,29.38,WSW,247,0.0,-999.0,99,-99.99,,,0.00,Acu-Link.com,2013-03-25 08:40:00,
2013-03-25 04:55:00,24.4,24.2,29.37,SSW,202,0.0,-999.0,99,-99.99,,,0.00,Acu-Link.com,2013-03-25 08:55:00,
2013-03-25 05:10:00,24.4,24.2,29.37,WSW,247,0.0,-999.0,99,-99.99,,,0.00,Acu-Link.com,2013-03-25 09:10:00,
2013-03-25 05:25:00,24.4,24.2,29.37,WSW,247,0.0,-999.0,99,-99.99,,,0.00,Acu-Link.com,2013-03-25 09:25:00,
2013-03-25 05:41:00,24.8,24.6,29.37,SSW,202,0.0,-999.0,99,-99.99,,,0.00,Acu-Link.com,2013-03-25 09:41:00,
2013-03-25 06:11:00,24.8,24.6,29.36,SW,225,0.0,-999.0,99,-99.99,,,0.00,Acu-Link.com,2013-03-25 10:11:00,
2013-03-25 06:42:00,25.2,25.0,29.35,SW,225,0.0,-999.0,99,-99.99,,,0.00,Acu-Link.com,2013-03-25 10:42:00,
2013-03-25 06:57:00,25.3,25.1,29.36,SSW,202,0.0,-999.0,99,-99.99,,,0.00,Acu-Link.com,2013-03-25 10:57:00,
2013-03-25 07:12:00,26.1,25.9,29.36,WSW,247,2.2,-999.0,99,-99.99,,,0.00,Acu-Link.com,2013-03-25 11:12:00,
2013-03-25 07:27:00,27.7,27.5,29.36,WSW,247,2.7,-999.0,99,-99.99,,,0.00,Acu-Link.com,2013-03-25 11:27:00,
2013-03-25 07:43:00,28.0,27.8,29.36,West,270,5.8,-999.0,99,-99.99,,,0.00,Acu-Link.com,2013-03-25 11:43:00,
2013-03-25 07:58:00,28.2,28.0,29.36,WSW,247,4.7,-999.0,99,-99.99,,,0.00,Acu-Link.com,2013-03-25 11:58:00,
2013-03-25 08:13:00,28.2,28.0,29.37,WSW,247,4.2,-999.0,99,-99.99,,,0.00,Acu-Link.com,2013-03-25 12:13:00,
2013-03-25 08:28:00,28.2,28.0,29.37,SW,225,2.7,-999.0,99,-99.99,,,0.00,Acu-Link.com,2013-03-25 12:28:00,
2013-03-25 08:43:00,28.2,28.0,29.37,West,270,4.7,-999.0,99,-99.99,,,0.00,Acu-Link.com,2013-03-25 12:43:00,
2013-03-25 08:58:00,27.9,27.7,29.38,WSW,247,5.8,-999.0,99,-99.99,,,0.00,Acu-Link.com,2013-03-25 12:58:00,
2013-03-25 09:29:00,27.7,27.2,29.38,WSW,247,5.8,-999.0,98,-99.99,,,0.00,Acu-Link.com,2013-03-25 13:29:00,
2013-03-25 09:44:00,27.5,27.3,29.38,WSW,247,7.3,-999.0,99,-99.99,,,0.00,Acu-Link.com,2013-03-25 13:44:00,
2013-03-25 09:59:00,27.3,26.8,29.38,WSW,247,5.3,-999.0,98,-99.99,,,0.00,Acu-Link.com,2013-03-25 13:59:00,
2013-03-25 10:14:00,27.1,26.6,29.38,West,270,7.8,-999.0,98,-99.99,,,0.00,Acu-Link.com,2013-03-25 14:14:00,
2013-03-25 10:30:00,27.7,26.7,29.39,West,270,5.8,-999.0,96,-99.99,,,0.00,Acu-Link.com,2013-03-25 14:30:00,
2013-03-25 10:45:00,30.4,28.4,29.38,WSW,247,6.3,-999.0,92,-99.99,,,0.00,Acu-Link.com,2013-03-25 14:45:00,
2013-03-25 11:00:00,29.8,27.5,29.37,West,270,7.8,-999.0,91,-99.99,,,0.00,Acu-Link.com,2013-03-25 15:00:00,
2013-03-25 11:15:00,28.4,26.6,29.38,West,270,8.9,-999.0,93,-99.99,,,0.00,Acu-Link.com,2013-03-25 15:15:00,
2013-03-25 12:17:00,27.9,27.4,29.40,West,270,9.9,-999.0,98,-99.99,,,0.00,Acu-Link.com,2013-03-25 16:17:00,
2013-03-25 12:32:00,31.1,27.4,29.31,West,270,8.9,-999.0,86,-99.99,,,0.00,Acu-Link.com,2013-03-25 16:32:00,
2013-03-25 12:47:00,30.2,25.4,29.33,West,270,14.0,-999.0,82,-99.99,,,0.00,Acu-Link.com,2013-03-25 16:47:00,
2013-03-25 13:02:00,29.3,24.5,29.37,WSW,247,13.0,-999.0,82,-99.99,,,0.00,Acu-Link.com,2013-03-25 17:02:00,
2013-03-25 13:17:00,29.1,24.9,29.39,WSW,247,13.5,-999.0,84,-99.99,,,0.00,Acu-Link.com,2013-03-25 17:17:00,
2013-03-25 13:32:00,32.2,24.9,29.33,West,270,18.6,-999.0,74,-99.99,,,0.00,Acu-Link.com,2013-03-25 17:32:00,
2013-03-25 13:47:00,32.9,24.5,29.30,West,270,14.5,-999.0,71,-99.99,,,0.00,Acu-Link.com,2013-03-25 17:47:00,
2013-03-25 14:02:00,32.7,23.7,29.31,West,270,6.3,-999.0,69,-99.99,,,0.00,Acu-Link.com,2013-03-25 18:02:00,
2013-03-25 14:17:00,33.8,24.0,29.32,West,270,14.5,-999.0,67,-99.99,,,0.00,Acu-Link.com,2013-03-25 18:17:00,
2013-03-25 14:33:00,34.7,24.2,29.30,West,270,6.3,-999.0,65,-99.99,,,0.00,Acu-Link.com,2013-03-25 18:33:00,
2013-03-25 14:48:00,37.4,24.0,29.31,West,270,5.8,-999.0,58,-99.99,,,0.00,Acu-Link.com,2013-03-25 18:48:00,
2013-03-25 15:03:00,36.9,23.1,29.32,West,270,10.4,-999.0,57,-99.99,,,0.00,Acu-Link.com,2013-03-25 19:03:00,
2013-03-25 15:18:00,36.0,23.5,29.32,West,270,11.9,-999.0,60,-99.99,,,0.00,Acu-Link.com,2013-03-25 19:18:00,
2013-03-25 15:33:00,35.2,23.9,29.32,West,270,13.0,-999.0,63,-99.99,,,0.00,Acu-Link.com,2013-03-25 19:33:00,
2013-03-25 15:48:00,36.5,25.1,29.33,West,270,14.0,-999.0,63,-99.99,,,0.00,Acu-Link.com,2013-03-25 19:48:00,
2013-03-25 16:03:00,34.5,24.3,29.33,WSW,247,19.1,-999.0,66,-99.99,,,0.00,Acu-Link.com,2013-03-25 20:03:00,
2013-03-25 16:18:00,34.5,25.0,29.37,West,270,8.9,-999.0,68,-99.99,,,0.00,Acu-Link.com,2013-03-25 20:18:00,
2013-03-25 16:33:00,31.3,26.2,29.40,West,270,11.9,-999.0,81,-99.99,,,0.00,Acu-Link.com,2013-03-25 20:33:00,
2013-03-25 16:49:00,31.6,27.3,29.41,WSW,247,6.8,-999.0,84,-99.99,,,0.00,Acu-Link.com,2013-03-25 20:49:00,
2013-03-25 17:04:00,34.3,25.6,29.41,SW,225,8.3,-999.0,70,-99.99,,,0.00,Acu-Link.com,2013-03-25 21:04:00,
2013-03-25 17:19:00,33.1,24.4,29.42,NNW,337,11.9,-999.0,70,-99.99,,,0.00,Acu-Link.com,2013-03-25 21:19:00,
2013-03-25 17:34:00,34.2,24.8,29.42,NW,315,10.4,-999.0,68,-99.99,,,0.00,Acu-Link.com,2013-03-25 21:34:00,
2013-03-25 17:49:00,33.4,24.3,29.43,WSW,247,8.3,-999.0,69,-99.99,,,0.00,Acu-Link.com,2013-03-25 21:49:00,
2013-03-25 18:04:00,34.0,23.1,29.44,SW,225,5.8,-999.0,64,-99.99,,,0.00,Acu-Link.com,2013-03-25 22:04:00,
2013-03-25 18:19:00,32.0,21.9,29.46,West,270,10.4,-999.0,66,-99.99,,,0.00,Acu-Link.com,2013-03-25 22:19:00,
2013-03-25 18:35:00,30.4,21.1,29.47,NNW,337,9.9,-999.0,68,-99.99,,,0.00,Acu-Link.com,2013-03-25 22:35:00,
2013-03-25 18:50:00,29.3,21.4,29.49,West,270,20.2,-999.0,72,-99.99,,,0.00,Acu-Link.com,2013-03-25 22:50:00,
2013-03-25 19:05:00,28.9,21.0,29.49,WSW,247,10.9,-999.0,72,-99.99,,,0.00,Acu-Link.com,2013-03-25 23:05:00,
2013-03-25 19:20:00,28.4,21.5,29.51,NW,315,5.3,-999.0,75,-99.99,,,0.00,Acu-Link.com,2013-03-25 23:20:00,
2013-03-25 19:35:00,28.4,20.9,29.51,NW,315,9.4,-999.0,73,-99.99,,,0.00,Acu-Link.com,2013-03-25 23:35:00,
2013-03-25 19:50:00,28.2,21.6,29.53,West,270,6.3,-999.0,76,-99.99,,,0.00,Acu-Link.com,2013-03-25 23:50:00,
2013-03-25 20:05:00,27.7,22.9,29.54,West,270,6.3,-999.0,82,-99.99,,,0.00,Acu-Link.com,2013-03-26 00:05:00,
2013-03-25 20:36:00,27.3,21.7,29.56,SW,225,9.4,-999.0,79,-99.99,,,0.00,Acu-Link.com,2013-03-26 00:36:00,
2013-03-25 20:51:00,27.1,21.8,29.55,West,270,10.9,-999.0,80,-99.99,,,0.00,Acu-Link.com,2013-03-26 00:51:00,
2013-03-25 21:06:00,27.1,21.8,29.57,West,270,8.9,-999.0,80,-99.99,,,0.00,Acu-Link.com,2013-03-26 01:06:00,
2013-03-25 21:22:00,26.8,21.8,29.56,WSW,247,6.8,-999.0,81,-99.99,,,0.00,Acu-Link.com,2013-03-26 01:22:00,
2013-03-25 21:37:00,27.0,22.0,29.56,WNW,292,7.8,-999.0,81,-99.99,,,0.00,Acu-Link.com,2013-03-26 01:37:00,
2013-03-25 21:52:00,26.8,22.1,29.57,West,270,13.5,-999.0,82,-99.99,,,0.00,Acu-Link.com,2013-03-26 01:52:00,
2013-03-25 22:07:00,27.0,22.3,29.57,West,270,10.4,-999.0,82,-99.99,,,0.00,Acu-Link.com,2013-03-26 02:07:00,
2013-03-25 22:22:00,27.0,22.0,29.58,NNW,337,10.9,-999.0,81,-99.99,,,0.00,Acu-Link.com,2013-03-26 02:22:00,
2013-03-25 22:37:00,27.3,22.0,29.58,North,0,5.3,-999.0,80,-99.99,,,0.00,Acu-Link.com,2013-03-26 02:37:00,
2013-03-25 22:52:00,27.5,22.2,29.59,West,270,16.1,-999.0,80,-99.99,,,0.00,Acu-Link.com,2013-03-26 02:52:00,
2013-03-25 23:07:00,27.5,22.2,29.60,West,270,15.0,-999.0,80,-99.99,,,0.00,Acu-Link.com,2013-03-26 03:07:00,
2013-03-25 23:22:00,27.7,22.4,29.60,West,270,8.3,-999.0,80,-99.99,,,0.00,Acu-Link.com,2013-03-26 03:22:00,
2013-03-25 23:37:00,27.7,22.4,29.61,West,270,5.8,-999.0,80,-99.99,,,0.00,Acu-Link.com,2013-03-26 03:37:00,
2013-03-25 23:52:00,27.7,22.1,29.61,WSW,247,6.8,-999.0,79,-99.99,,,0.00,Acu-Link.com,2013-03-26 03:52:00,